Location: Prague
(50.0830°N, 14.4670°E)
Time: 19:33:24
(UTC+02:00)

UKube-1 - Visible Passes

Search period start: 28 March 2023 00:00
Search period end: 07 April 2023 00:00
Orbit: 602 x 609 km, 98.4° (Epoch: 28 March)

Date Brightness Start Highest point End Pass type
(mag) Time Alt. Az. Time Alt. Az. Time Alt. Az.
28 Mar ? 01:15:42 10° N 01:16:28 14° N 01:16:28 14° N visible
28 Mar ? 23:52:36 10° NNE 23:52:42 11° NNE 23:52:42 11° NNE visible
29 Mar ? 01:28:46 10° N 01:29:35 14° NNW 01:29:35 14° NNW visible
30 Mar ? 00:05:21 10° NNE 00:05:49 13° NNE 00:05:49 13° NNE visible
30 Mar ? 01:41:54 10° NNW 01:42:41 13° NNW 01:42:41 13° NNW visible
31 Mar ? 00:18:08 10° NNE 00:18:54 15° NNE 00:18:54 15° NNE visible
31 Mar ? 01:55:07 10° NNW 01:55:46 12° NNW 01:55:46 12° NNW visible
01 Apr ? 00:30:56 10° NNE 00:31:58 17° NNE 00:31:58 17° NNE visible
01 Apr ? 02:08:31 10° NNW 02:08:50 11° NW 02:08:50 11° NW visible
02 Apr ? 00:43:47 10° N 00:45:02 19° N 00:45:02 19° N visible
03 Apr ? 00:56:39 10° N 00:58:04 20° N 00:58:04 20° N visible
03 Apr ? 23:33:59 10° NE 23:34:13 11° NE 23:34:13 11° NE visible
04 Apr ? 01:09:32 10° N 01:11:06 20° NNW 01:11:06 20° NNW visible
04 Apr ? 23:46:32 10° NNE 23:47:14 14° NE 23:47:14 14° NE visible
05 Apr ? 01:22:28 10° N 01:24:06 20° NNW 01:24:06 20° NNW visible
05 Apr ? 23:59:08 10° NNE 00:00:13 17° NNE 00:00:13 17° NNE visible
06 Apr ? 01:35:26 10° N 01:37:06 18° NNW 01:37:06 18° NNW visible
